,,PA_Meas_PMT16A,,PR_Meas_QMR101_102,,RH_Meas_QMH101,,SR_Meas_QMS101,,TA_Meas_QMH101,,GenWind,,GenWind,
time,status,PA,status,PR,status,RH,status,SR,status,TA,status,DirAvg,status,SpdAvg,
2013-06-12, 00:00:04,VALID,915.562,VALID,0,VALID,88.2334,VALID,0,VALID,19.4313,VALID,274,VALID,0,
2013-06-12, 00:01:04,VALID,915.56,VALID,0,VALID,87.6083,VALID,0,VALID,19.5483,VALID,195,VALID,0,
2013-06-12, 00:02:04,VALID,915.518,VALID,0,VALID,87.4939,VALID,0,VALID,19.6068,VALID,237,VALID,0,
2013-06-12, 00:03:04,VALID,915.517,VALID,0,VALID,87.6159,VALID,0,VALID,19.6263,VALID,79,VALID,0,
2013-06-12, 00:04:04,VALID,915.508,VALID,0,VALID,87.959,VALID,0,VALID,19.5873,VALID,71,VALID,0,
2013-06-12, 00:05:04,VALID,915.472,VALID,0,VALID,88.1038,VALID,0,VALID,19.5483,VALID,46,VALID,0,
2013-06-12, 00:06:04,VALID,915.441,VALID,0,VALID,88.241,VALID,0,VALID,19.4898,VALID,158,VALID,0,
2013-06-12, 00:07:04,VALID,915.476,VALID,0,VALID,88.0047,VALID,0,VALID,19.5093,VALID,273,VALID,0,
2013-06-12, 00:08:04,VALID,915.486,VALID,0,VALID,87.837,VALID,0,VALID,19.5468,VALID,196,VALID,0,
2013-06-12, 00:09:04,VALID,915.502,VALID,0,VALID,87.8446,VALID,0,VALID,19.6068,VALID,134,VALID,0,
2013-06-12, 00:10:04,VALID,915.466,VALID,0,VALID,87.9361,VALID,0,VALID,19.5678,VALID,141,VALID,0,
2013-06-12, 00:11:04,VALID,915.451,VALID,0,VALID,88.0886,VALID,0.107441,VALID,19.5468,VALID,218,VALID,0,
2013-06-12, 00:12:04,VALID,915.499,VALID,0,VALID,88.2639,VALID,0,VALID,19.5483,VALID,227,VALID,0,
2013-06-12, 00:13:04,VALID,915.526,VALID,0,VALID,88.2944,VALID,0,VALID,19.5288,VALID,227,VALID,0,
2013-06-12, 00:14:04,VALID,915.524,VALID,0,VALID,88.4392,VALID,0,VALID,19.5093,VALID,227,VALID,0,
2013-06-12, 00:15:05,VALID,915.502,VALID,0,VALID,88.485,VALID,0,VALID,19.4493,VALID,213,VALID,0,
2013-06-12, 00:16:05,VALID,915.529,VALID,0,VALID,88.4697,VALID,0,VALID,19.4898,VALID,222,VALID,0,
2013-06-12, 00:17:05,VALID,915.513,VALID,0,VALID,88.4011,VALID,0,VALID,19.4688,VALID,242,VALID,0,
2013-06-12, 00:18:05,VALID,915.47,VALID,0,VALID,88.1496,VALID,0,VALID,19.5288,VALID,262,VALID,0,
2013-06-12, 00:19:05,VALID,915.472,VALID,0,VALID,88.6146,VALID,0,VALID,19.5273,VALID,286,VALID,0,
2013-06-12, 00:20:05,VALID,915.495,VALID,0,VALID,88.8357,VALID,0,VALID,19.4898,VALID,275,VALID,0,
2013-06-12, 00:21:05,VALID,915.479,VALID,0,VALID,88.95,VALID,0,VALID,19.4313,VALID,275,VALID,0,
2013-06-12, 00:22:05,VALID,915.496,VALID,0,VALID,89.0796,VALID,0,VALID,19.4118,VALID,243,VALID,0,
2013-06-12, 00:23:05,VALID,915.534,VALID,0,VALID,88.6832,VALID,0,VALID,19.4313,VALID,253,VALID,0,
2013-06-12, 00:24:05,VALID,915.5,VALID,0,VALID,87.8294,VALID,0,VALID,19.5483,VALID,244,VALID,0,
2013-06-12, 00:25:05,VALID,915.541,VALID,0,VALID,87.3948,VALID,0,VALID,19.6848,VALID,263,VALID,0,
2013-06-12, 00:26:05,VALID,915.569,VALID,0,VALID,87.1204,VALID,0,VALID,19.7238,VALID,261,VALID,0,
2013-06-12, 00:27:05,VALID,915.574,VALID,0,VALID,87.2271,VALID,0,VALID,19.7433,VALID,240,VALID,0,
2013-06-12, 00:28:05,VALID,915.596,VALID,0,VALID,87.2652,VALID,0,VALID,19.7043,VALID,250,VALID,0,
2013-06-12, 00:29:05,VALID,915.632,VALID,0,VALID,87.189,VALID,0,VALID,19.7028,VALID,257,VALID,0,
2013-06-12, 00:30:05,VALID,915.65,VALID,0,VALID,87.1433,VALID,0,VALID,19.6833,VALID,255,VALID,0,
2013-06-12, 00:31:05,VALID,915.618,VALID,0,VALID,87.2805,VALID,0,VALID,19.7028,VALID,247,VALID,0,
2013-06-12, 00:32:05,VALID,915.629,VALID,0,VALID,87.4025,VALID,0,VALID,19.7238,VALID,246,VALID,0,
2013-06-12, 00:33:05,VALID,915.628,VALID,0,VALID,87.5244,VALID,0,VALID,19.6638,VALID,251,VALID,0,
2013-06-12, 00:34:05,VALID,915.625,VALID,0,VALID,87.6998,VALID,0,VALID,19.6458,VALID,237,VALID,0,
2013-06-12, 00:35:05,VALID,915.616,VALID,0,VALID,87.8751,VALID,0,VALID,19.6263,VALID,227,VALID,0,
2013-06-12, 00:36:05,VALID,915.565,VALID,0,VALID,87.9132,VALID,0,VALID,19.6053,VALID,262,VALID,0,
2013-06-12, 00:37:05,VALID,915.579,VALID,0,VALID,88.1191,VALID,0,VALID,19.6068,VALID,244,VALID,0,
2013-06-12, 00:38:05,VALID,915.558,VALID,0,VALID,88.2792,VALID,0,VALID,19.5678,VALID,251,VALID,0,
2013-06-12, 00:39:05,VALID,915.567,VALID,0,VALID,88.485,VALID,0,VALID,19.5483,VALID,247,VALID,0,
2013-06-12, 00:40:05,VALID,915.548,VALID,0,VALID,88.5307,VALID,0,VALID,19.5288,VALID,244,VALID,0,
2013-06-12, 00:41:05,VALID,915.523,VALID,0,VALID,88.6603,VALID,0,VALID,19.4883,VALID,267,VALID,0,
2013-06-12, 00:42:05,VALID,915.521,VALID,0,VALID,88.7747,VALID,0,VALID,19.4898,VALID,253,VALID,0,
2013-06-12, 00:43:05,VALID,915.545,VALID,0,VALID,88.8662,VALID,0,VALID,19.4703,VALID,276,VALID,0,
2013-06-12, 00:44:05,VALID,915.507,VALID,0,VALID,89.0415,VALID,0,VALID,19.4493,VALID,217,VALID,0,
2013-06-12, 00:45:05,VALID,915.489,VALID,0,VALID,89.2092,VALID,0,VALID,19.4298,VALID,246,VALID,0,
2013-06-12, 00:46:05,VALID,915.505,VALID,0,VALID,89.598,VALID,0,VALID,19.4118,VALID,250,VALID,0,
2013-06-12, 00:47:05,VALID,915.482,VALID,0,VALID,89.7886,VALID,0,VALID,19.3728,VALID,263,VALID,0,
2013-06-12, 00:48:05,VALID,915.46,VALID,0,VALID,89.8191,VALID,0.107441,VALID,19.3713,VALID,226,VALID,0,
2013-06-12, 00:49:05,VALID,915.476,VALID,0,VALID,89.8038,VALID,0,VALID,19.3923,VALID,271,VALID,0,
2013-06-12, 00:50:05,VALID,915.446,VALID,0,VALID,89.8801,VALID,0,VALID,19.3518,VALID,245,VALID,0,
2013-06-12, 00:51:05,VALID,915.491,VALID,0,VALID,89.2778,VALID,0,VALID,19.4898,VALID,245,VALID,0,
2013-06-12, 00:52:05,VALID,915.512,VALID,0,VALID,89.1559,VALID,0,VALID,19.5093,VALID,245,VALID,0,
2013-06-12, 00:53:05,VALID,915.562,VALID,0,VALID,89.3083,VALID,0,VALID,19.4898,VALID,244,VALID,0,
2013-06-12, 00:54:05,VALID,915.573,VALID,0,VALID,89.6514,VALID,0,VALID,19.4493,VALID,220,VALID,0,
2013-06-12, 00:55:05,VALID,915.575,VALID,0,VALID,89.7581,VALID,0,VALID,19.4103,VALID,250,VALID,0,
2013-06-12, 00:56:05,VALID,915.589,VALID,0,VALID,89.8572,VALID,0,VALID,19.3908,VALID,234,VALID,0,
2013-06-12, 00:57:05,VALID,915.59,VALID,0,VALID,90.0021,VALID,0,VALID,19.4103,VALID,249,VALID,0,
2013-06-12, 00:58:05,VALID,915.573,VALID,0,VALID,90.124,VALID,0.107441,VALID,19.3908,VALID,241,VALID,0,
2013-06-12, 00:59:05,VALID,915.593,VALID,0.2,VALID,90.3832,VALID,0,VALID,19.3728,VALID,255,VALID,0,
2013-06-12, 01:00:05,VALID,915.537,VALID,0,VALID,90.9016,VALID,0,VALID,19.3338,VALID,354,VALID,0,
2013-06-12, 01:01:05,VALID,915.605,VALID,0,VALID,91.0083,VALID,0,VALID,19.2738,VALID,254,VALID,0,
2013-06-12, 01:02:05,VALID,915.557,VALID,0,VALID,91.2675,VALID,0,VALID,19.2558,VALID,291,VALID,0,
2013-06-12, 01:03:05,VALID,915.565,VALID,0,VALID,91.4505,VALID,0,VALID,19.2168,VALID,185,VALID,0,
2013-06-12, 01:04:05,VALID,915.558,VALID,0,VALID,91.6106,VALID,0,VALID,19.2153,VALID,235,VALID,0,
2013-06-12, 01:05:05,VALID,915.552,VALID,0,VALID,91.5801,VALID,0,VALID,19.2753,VALID,274,VALID,0,
2013-06-12, 01:06:05,VALID,915.482,VALID,0,VALID,91.6868,VALID,0,VALID,19.3143,VALID,359,VALID,0,
2013-06-12, 01:07:05,VALID,915.542,VALID,0,VALID,91.6945,VALID,0,VALID,19.3338,VALID,46,VALID,0,
2013-06-12, 01:08:05,VALID,915.578,VALID,0,VALID,91.7326,VALID,0,VALID,19.3338,VALID,172,VALID,0,
2013-06-12, 01:09:05,VALID,915.563,VALID,0,VALID,91.7631,VALID,0,VALID,19.2948,VALID,190,VALID,0,
2013-06-12, 01:10:05,VALID,915.587,VALID,0,VALID,91.7402,VALID,0,VALID,19.2948,VALID,155,VALID,0,
2013-06-12, 01:11:05,VALID,915.608,VALID,0,VALID,91.6868,VALID,0,VALID,19.3128,VALID,26,VALID,0,
2013-06-12, 01:12:05,VALID,915.625,VALID,0,VALID,91.6945,VALID,0,VALID,19.3338,VALID,41,VALID,0,
2013-06-12, 01:13:05,VALID,915.649,VALID,0,VALID,91.7173,VALID,0,VALID,19.3533,VALID,42,VALID,0,
2013-06-12, 01:14:05,VALID,915.633,VALID,0,VALID,91.6868,VALID,0,VALID,19.3338,VALID,324,VALID,0,
2013-06-12, 01:15:05,VALID,915.629,VALID,0,VALID,91.7859,VALID,0,VALID,19.3728,VALID,282,VALID,0,
2013-06-12, 01:16:05,VALID,915.629,VALID,0,VALID,91.8774,VALID,0,VALID,19.3143,VALID,215,VALID,0,
2013-06-12, 01:17:05,VALID,915.616,VALID,0,VALID,91.9079,VALID,0,VALID,19.3338,VALID,253,VALID,0,
2013-06-12, 01:18:05,VALID,915.631,VALID,0,VALID,92.0299,VALID,0,VALID,19.3323,VALID,327,VALID,0,
2013-06-12, 01:19:05,VALID,915.581,VALID,0.2,VALID,91.8393,VALID,0,VALID,19.3143,VALID,325,VALID,0,
2013-06-12, 01:20:05,VALID,915.594,VALID,0,VALID,91.7554,VALID,0,VALID,19.3923,VALID,190,VALID,0,
2013-06-12, 01:21:05,VALID,915.607,VALID,0,VALID,91.1608,VALID,0,VALID,19.5093,VALID,342,VALID,0,
2013-06-12, 01:22:05,VALID,915.601,VALID,0,VALID,90.9016,VALID,0,VALID,19.4883,VALID,24,VALID,0,
2013-06-12, 01:23:05,VALID,915.543,VALID,0,VALID,90.955,VALID,0,VALID,19.5093,VALID,46,VALID,0,
2013-06-12, 01:24:05,VALID,915.638,VALID,0,VALID,91.2066,VALID,0,VALID,19.5093,VALID,325,VALID,0,
2013-06-12, 01:25:05,VALID,915.624,VALID,0,VALID,91.2904,VALID,0,VALID,19.4313,VALID,302,VALID,0,
2013-06-12, 01:26:05,VALID,915.634,VALID,0,VALID,91.4886,VALID,0,VALID,19.4508,VALID,349,VALID,0,
2013-06-12, 01:27:05,VALID,915.607,VALID,0,VALID,91.5953,VALID,0,VALID,19.4118,VALID,237,VALID,0,
2013-06-12, 01:28:05,VALID,915.588,VALID,0,VALID,91.7554,VALID,0,VALID,19.3923,VALID,41,VALID,0,
2013-06-12, 01:29:05,VALID,915.56,VALID,0,VALID,92.0299,VALID,0,VALID,19.3728,VALID,37,VALID,0,
2013-06-12, 01:30:05,VALID,915.567,VALID,0,VALID,92.3196,VALID,0,VALID,19.3533,VALID,76,VALID,0,
2013-06-12, 01:31:05,VALID,915.544,VALID,0,VALID,92.5025,VALID,0,VALID,19.2753,VALID,190,VALID,0,
2013-06-12, 01:32:05,VALID,915.575,VALID,0,VALID,92.5864,VALID,0,VALID,19.2948,VALID,38,VALID,0,
2013-06-12, 01:33:05,VALID,915.548,VALID,0,VALID,92.8075,VALID,0,VALID,19.2753,VALID,13,VALID,0,
2013-06-12, 01:34:05,VALID,915.546,VALID,0,VALID,92.9904,VALID,0,VALID,19.2363,VALID,314,VALID,0,
2013-06-12, 01:35:05,VALID,915.557,VALID,0,VALID,93.0972,VALID,0,VALID,19.2558,VALID,49,VALID,0,
2013-06-12, 01:36:05,VALID,915.48,VALID,0,VALID,93.1124,VALID,0,VALID,19.2558,VALID,116,VALID,0,
2013-06-12, 01:37:05,VALID,915.509,VALID,0,VALID,93.12,VALID,0,VALID,19.2558,VALID,19,VALID,0,
2013-06-12, 01:38:05,VALID,915.496,VALID,0,VALID,93.0743,VALID,0,VALID,19.2933,VALID,139,VALID,0,
2013-06-12, 01:39:05,VALID,915.463,VALID,0,VALID,93.0438,VALID,0,VALID,19.2933,VALID,359,VALID,0,
2013-06-12, 01:40:05,VALID,915.572,VALID,0,VALID,92.8456,VALID,0,VALID,19.3143,VALID,159,VALID,0,
2013-06-12, 01:41:05,VALID,915.536,VALID,0,VALID,92.7007,VALID,0,VALID,19.3923,VALID,225,VALID,0,
2013-06-12, 01:42:05,VALID,915.648,VALID,0,VALID,92.5483,VALID,0,VALID,19.3908,VALID,204,VALID,0,
2013-06-12, 01:43:05,VALID,915.586,VALID,0,VALID,92.472,VALID,0,VALID,19.3713,VALID,248,VALID,0,
2013-06-12, 01:44:05,VALID,915.605,VALID,0,VALID,92.6016,VALID,0,VALID,19.3533,VALID,47,VALID,0,
2013-06-12, 01:45:05,VALID,915.541,VALID,0,VALID,92.7465,VALID,0,VALID,19.3338,VALID,53,VALID,0,
2013-06-12, 01:46:05,VALID,915.582,VALID,0,VALID,92.9218,VALID,0,VALID,19.3338,VALID,167,VALID,0,
2013-06-12, 01:47:05,VALID,915.573,VALID,0,VALID,93.059,VALID,0,VALID,19.2948,VALID,103,VALID,0,
2013-06-12, 01:48:05,VALID,915.578,VALID,0,VALID,93.1581,VALID,0,VALID,19.2753,VALID,194,VALID,0,
2013-06-12, 01:49:05,VALID,915.533,VALID,0,VALID,93.2191,VALID,0,VALID,19.2558,VALID,176,VALID,0,
2013-06-12, 01:50:05,VALID,915.545,VALID,0,VALID,93.2344,VALID,0,VALID,19.2753,VALID,223,VALID,0,
2013-06-12, 01:51:05,VALID,915.568,VALID,0,VALID,93.242,VALID,0,VALID,19.2948,VALID,19,VALID,0,
2013-06-12, 01:52:05,VALID,915.509,VALID,0,VALID,93.2954,VALID,0,VALID,19.2948,VALID,49,VALID,0,
2013-06-12, 01:53:05,VALID,915.444,VALID,0,VALID,93.425,VALID,0,VALID,19.2948,VALID,49,VALID,0,
2013-06-12, 01:54:05,VALID,915.415,VALID,0,VALID,93.5164,VALID,0,VALID,19.2543,VALID,37,VALID,0,
2013-06-12, 01:55:05,VALID,915.414,VALID,0,VALID,93.5927,VALID,0,VALID,19.2753,VALID,137,VALID,0,
2013-06-12, 01:56:05,VALID,915.421,VALID,0,VALID,93.7147,VALID,0,VALID,19.2377,VALID,23,VALID,0,
2013-06-12, 01:57:05,VALID,915.347,VALID,0,VALID,93.7451,VALID,0,VALID,19.2363,VALID,67,VALID,0,
2013-06-12, 01:58:05,VALID,915.355,VALID,0,VALID,93.829,VALID,0,VALID,19.2558,VALID,33,VALID,0,
2013-06-12, 01:59:05,VALID,915.299,VALID,0,VALID,93.8747,VALID,0,VALID,19.1958,VALID,171,VALID,0,
2013-06-12, 02:00:05,VALID,915.234,VALID,0,VALID,93.9052,VALID,0,VALID,19.2153,VALID,101,VALID,0,
2013-06-12, 02:01:05,VALID,915.245,VALID,0,VALID,93.9052,VALID,0,VALID,19.2168,VALID,210,VALID,0,
2013-06-12, 02:02:05,VALID,915.286,VALID,0,VALID,93.9434,VALID,0,VALID,19.2558,VALID,357,VALID,0,
2013-06-12, 02:03:05,VALID,915.313,VALID,0,VALID,93.9205,VALID,0,VALID,19.2363,VALID,192,VALID,0,
2013-06-12, 02:04:05,VALID,915.319,VALID,0,VALID,93.9205,VALID,0,VALID,19.2558,VALID,297,VALID,0,
2013-06-12, 02:05:05,VALID,915.31,VALID,0,VALID,93.8976,VALID,0,VALID,19.2363,VALID,51,VALID,0,
2013-06-12, 02:06:05,VALID,915.295,VALID,0,VALID,93.9052,VALID,0,VALID,19.2558,VALID,126,VALID,0,
2013-06-12, 02:07:05,VALID,915.358,VALID,0,VALID,93.9586,VALID,0,VALID,19.2558,VALID,358,VALID,0,
2013-06-12, 02:08:05,VALID,915.364,VALID,0,VALID,94.012,VALID,0,VALID,19.1958,VALID,165,VALID,0,
2013-06-12, 02:09:05,VALID,915.346,VALID,0,VALID,94.0272,VALID,0,VALID,19.1958,VALID,113,VALID,0,
2013-06-12, 02:10:05,VALID,915.36,VALID,0,VALID,94.0501,VALID,0,VALID,19.2168,VALID,36,VALID,0,
2013-06-12, 02:11:05,VALID,915.354,VALID,0,VALID,94.0577,VALID,0,VALID,19.2558,VALID,315,VALID,0,
2013-06-12, 02:12:05,VALID,915.291,VALID,0,VALID,94.0653,VALID,0,VALID,19.2363,VALID,111,VALID,0,
2013-06-12, 02:13:05,VALID,915.256,VALID,0,VALID,94.0501,VALID,0,VALID,19.2153,VALID,91,VALID,0,
2013-06-12, 02:14:05,VALID,915.326,VALID,0,VALID,94.0806,VALID,0,VALID,19.1973,VALID,170,VALID,0,
2013-06-12, 02:15:05,VALID,915.228,VALID,0,VALID,94.0958,VALID,0,VALID,19.1973,VALID,51,VALID,0,
2013-06-12, 02:16:05,VALID,915.258,VALID,0,VALID,94.1111,VALID,0,VALID,19.1973,VALID,43,VALID,0,
2013-06-12, 02:17:05,VALID,915.194,VALID,0,VALID,94.1492,VALID,0,VALID,19.1973,VALID,300,VALID,0,
2013-06-12, 02:18:05,VALID,915.088,VALID,0,VALID,94.0882,VALID,0,VALID,19.1973,VALID,79,VALID,0,
2013-06-12, 02:19:05,VALID,915.135,VALID,0,VALID,94.073,VALID,0,VALID,19.1958,VALID,339,VALID,0,
2013-06-12, 02:20:05,VALID,915.074,VALID,0,VALID,93.9738,VALID,0,VALID,19.1973,VALID,282,VALID,0,
2013-06-12, 02:21:05,VALID,915.005,VALID,0,VALID,93.8138,VALID,0,VALID,19.2363,VALID,39,VALID,0,
2013-06-12, 02:22:05,VALID,915.013,VALID,0,VALID,93.6232,VALID,0,VALID,19.2753,VALID,54,VALID,0,
2013-06-12, 02:23:05,VALID,915.018,VALID,0,VALID,93.4936,VALID,0,VALID,19.2948,VALID,13,VALID,0,
2013-06-12, 02:24:05,VALID,915.019,VALID,0,VALID,93.2954,VALID,0,VALID,19.2948,VALID,53,VALID,0,
2013-06-12, 02:25:05,VALID,914.928,VALID,0,VALID,93.242,VALID,0,VALID,19.3143,VALID,30,VALID,0,
2013-06-12, 02:26:05,VALID,914.906,VALID,0,VALID,93.242,VALID,0,VALID,19.3143,VALID,177,VALID,0,
2013-06-12, 02:27:05,VALID,914.919,VALID,0,VALID,93.2344,VALID,0,VALID,19.3143,VALID,140,VALID,0,
2013-06-12, 02:28:05,VALID,914.938,VALID,0,VALID,93.2191,VALID,0,VALID,19.2948,VALID,224,VALID,0,
2013-06-12, 02:29:05,VALID,914.952,VALID,0,VALID,93.2344,VALID,0,VALID,19.3143,VALID,355,VALID,0,
2013-06-12, 02:30:05,VALID,914.965,VALID,0,VALID,93.059,VALID,0,VALID,19.3533,VALID,254,VALID,0,
2013-06-12, 02:31:05,VALID,914.85,VALID,0,VALID,92.8456,VALID,0,VALID,19.3338,VALID,21,VALID,0,
2013-06-12, 02:32:05,VALID,914.904,VALID,0,VALID,92.6169,VALID,0,VALID,19.3923,VALID,213,VALID,0,
2013-06-12, 02:33:05,VALID,914.901,VALID,0,VALID,92.4568,VALID,0,VALID,19.3518,VALID,243,VALID,0,
2013-06-12, 02:34:05,VALID,914.858,VALID,0,VALID,92.3958,VALID,0,VALID,19.3923,VALID,154,VALID,0,
2013-06-12, 02:35:05,VALID,914.789,VALID,0,VALID,92.3424,VALID,0,VALID,19.4313,VALID,206,VALID,0,
2013-06-12, 02:36:05,VALID,914.831,VALID,0,VALID,92.2128,VALID,0,VALID,19.4508,VALID,11,VALID,0,
2013-06-12, 02:37:05,VALID,914.814,VALID,0,VALID,92.2281,VALID,0,VALID,19.4313,VALID,94,VALID,0,
2013-06-12, 02:38:05,VALID,914.797,VALID,0,VALID,92.2662,VALID,0,VALID,19.3923,VALID,155,VALID,0,
2013-06-12, 02:39:05,VALID,914.714,VALID,0,VALID,92.3272,VALID,0,VALID,19.3713,VALID,155,VALID,0,
2013-06-12, 02:40:05,VALID,914.751,VALID,0,VALID,92.411,VALID,0,VALID,19.3728,VALID,58,VALID,0,
2013-06-12, 02:41:05,VALID,914.758,VALID,0,VALID,92.4797,VALID,0,VALID,19.3338,VALID,339,VALID,0,
2013-06-12, 02:42:05,VALID,914.759,VALID,0,VALID,92.5559,VALID,0,VALID,19.3338,VALID,241,VALID,0,
2013-06-12, 02:43:05,VALID,914.682,VALID,0,VALID,92.594,VALID,0,VALID,19.3338,VALID,51,VALID,0,
2013-06-12, 02:44:05,VALID,914.8,VALID,0,VALID,92.7236,VALID,0,VALID,19.2948,VALID,100,VALID,0,
2013-06-12, 02:45:05,VALID,914.852,VALID,0,VALID,92.8456,VALID,0,VALID,19.2558,VALID,132,VALID,0,
2013-06-12, 02:46:05,VALID,914.803,VALID,0,VALID,92.9371,VALID,0,VALID,19.2558,VALID,38,VALID,0,
2013-06-12, 02:47:05,VALID,914.82,VALID,0,VALID,92.9676,VALID,0,VALID,19.2558,VALID,193,VALID,0,
2013-06-12, 02:48:05,VALID,914.841,VALID,0,VALID,92.9828,VALID,0,VALID,19.2348,VALID,37,VALID,0,
2013-06-12, 02:49:05,VALID,914.815,VALID,0,VALID,93.0209,VALID,0,VALID,19.2348,VALID,53,VALID,0,
2013-06-12, 02:50:05,VALID,914.83,VALID,0,VALID,93.0133,VALID,0,VALID,19.2348,VALID,166,VALID,0,
2013-06-12, 02:51:05,VALID,914.819,VALID,0,VALID,93.0514,VALID,0,VALID,19.2348,VALID,82,VALID,0,
2013-06-12, 02:52:05,VALID,914.857,VALID,0,VALID,93.0438,VALID,0,VALID,19.2543,VALID,65,VALID,0,
2013-06-12, 02:53:05,VALID,914.849,VALID,0,VALID,93.0895,VALID,0,VALID,19.2558,VALID,331,VALID,0,
2013-06-12, 02:54:05,VALID,914.844,VALID,0,VALID,93.0819,VALID,0,VALID,19.2558,VALID,16,VALID,0,
2013-06-12, 02:55:05,VALID,914.809,VALID,0,VALID,93.0895,VALID,0,VALID,19.2753,VALID,17,VALID,0,
2013-06-12, 02:56:04,VALID,914.638,VALID,0,VALID,93.0819,VALID,0,VALID,19.2558,VALID,10,VALID,0,
2013-06-12, 02:57:04,VALID,914.706,VALID,0,VALID,93.0133,VALID,0,VALID,19.2948,VALID,106,VALID,0,
2013-06-12, 02:58:04,VALID,914.709,VALID,0,VALID,92.9218,VALID,0,VALID,19.2948,VALID,22,VALID,0,
2013-06-12, 02:59:04,VALID,914.719,VALID,0,VALID,92.9599,VALID,0,VALID,19.2543,VALID,343,VALID,0,
2013-06-12, 03:00:04,VALID,914.581,VALID,0,VALID,93.0209,VALID,0,VALID,19.2543,VALID,65,VALID,0,
2013-06-12, 03:01:04,VALID,914.582,VALID,0,VALID,93.1429,VALID,0,VALID,19.2543,VALID,37,VALID,0,
2013-06-12, 03:02:04,VALID,914.61,VALID,0,VALID,93.1886,VALID,0,VALID,19.2558,VALID,190,VALID,0,
2013-06-12, 03:03:04,VALID,914.633,VALID,0,VALID,93.2496,VALID,0,VALID,19.2558,VALID,31,VALID,0,
2013-06-12, 03:04:04,VALID,914.672,VALID,0,VALID,93.3259,VALID,0,VALID,19.2558,VALID,108,VALID,0,
2013-06-12, 03:05:04,VALID,914.684,VALID,0,VALID,93.3792,VALID,0,VALID,19.2558,VALID,79,VALID,0,
2013-06-12, 03:06:04,VALID,914.729,VALID,0,VALID,93.3792,VALID,0,VALID,19.2558,VALID,39,VALID,0,
2013-06-12, 03:07:04,VALID,914.738,VALID,0,VALID,93.364,VALID,0,VALID,19.2558,VALID,90,VALID,0,
2013-06-12, 03:08:04,VALID,914.762,VALID,0,VALID,93.4326,VALID,0,VALID,19.2558,VALID,131,VALID,0,
2013-06-12, 03:09:04,VALID,914.714,VALID,0,VALID,93.4783,VALID,0,VALID,19.2363,VALID,333,VALID,0,
2013-06-12, 03:10:04,VALID,914.747,VALID,0,VALID,93.4326,VALID,0,VALID,19.2753,VALID,107,VALID,0,
2013-06-12, 03:11:04,VALID,914.782,VALID,0,VALID,93.4402,VALID,0,VALID,19.2962,VALID,216,VALID,0,
2013-06-12, 03:12:04,VALID,914.769,VALID,0,VALID,93.4402,VALID,0,VALID,19.2948,VALID,69,VALID,0,
2013-06-12, 03:13:04,VALID,914.801,VALID,0,VALID,93.4555,VALID,0,VALID,19.2738,VALID,108,VALID,0,
2013-06-12, 03:14:04,VALID,914.757,VALID,0,VALID,93.4707,VALID,0,VALID,19.2753,VALID,65,VALID,0,
2013-06-12, 03:15:04,VALID,914.788,VALID,0,VALID,93.5088,VALID,0,VALID,19.2948,VALID,108,VALID,0,
2013-06-12, 03:16:04,VALID,914.734,VALID,0,VALID,93.4478,VALID,0,VALID,19.2948,VALID,329,VALID,0,
2013-06-12, 03:17:04,VALID,914.763,VALID,0,VALID,93.3487,VALID,0,VALID,19.3338,VALID,62,VALID,0,
2013-06-12, 03:18:04,VALID,914.71,VALID,0,VALID,93.2191,VALID,0,VALID,19.3533,VALID,113,VALID,0,
2013-06-12, 03:19:04,VALID,914.744,VALID,0,VALID,93.1429,VALID,0,VALID,19.3923,VALID,4,VALID,0,
2013-06-12, 03:20:04,VALID,914.724,VALID,0,VALID,93.0895,VALID,0,VALID,19.3923,VALID,335,VALID,0,
2013-06-12, 03:21:04,VALID,914.724,VALID,0,VALID,93.0743,VALID,0,VALID,19.3923,VALID,320,VALID,0,
2013-06-12, 03:22:04,VALID,914.667,VALID,0,VALID,93.059,VALID,0,VALID,19.3923,VALID,20,VALID,0,
2013-06-12, 03:23:04,VALID,914.742,VALID,0,VALID,93.059,VALID,0,VALID,19.4118,VALID,131,VALID,0,
2013-06-12, 03:24:04,VALID,914.728,VALID,0,VALID,93.0895,VALID,0,VALID,19.3923,VALID,139,VALID,0,
2013-06-12, 03:25:04,VALID,914.736,VALID,0,VALID,93.0895,VALID,0,VALID,19.3908,VALID,264,VALID,0,
2013-06-12, 03:26:04,VALID,914.784,VALID,0,VALID,92.9523,VALID,0,VALID,19.4703,VALID,210,VALID,0,
2013-06-12, 03:27:04,VALID,914.814,VALID,0,VALID,92.9066,VALID,0,VALID,19.4898,VALID,42,VALID,0,
2013-06-12, 03:28:04,VALID,914.777,VALID,0,VALID,92.9142,VALID,0,VALID,19.4898,VALID,28,VALID,0,
2013-06-12, 03:29:04,VALID,914.764,VALID,0,VALID,93.0667,VALID,0,VALID,19.4703,VALID,23,VALID,0,
2013-06-12, 03:30:04,VALID,914.709,VALID,0,VALID,93.1886,VALID,0,VALID,19.4508,VALID,6,VALID,0,
2013-06-12, 03:31:04,VALID,914.756,VALID,0,VALID,93.3411,VALID,0,VALID,19.4118,VALID,16,VALID,0,
2013-06-12, 03:32:04,VALID,914.756,VALID,0,VALID,93.4402,VALID,0,VALID,19.4132,VALID,91,VALID,0,
2013-06-12, 03:33:04,VALID,914.72,VALID,0,VALID,93.5546,VALID,0,VALID,19.3728,VALID,205,VALID,0,
2013-06-12, 03:34:04,VALID,914.727,VALID,0,VALID,93.5622,VALID,0,VALID,19.3923,VALID,15,VALID,0,
2013-06-12, 03:35:04,VALID,914.653,VALID,0,VALID,93.5164,VALID,0,VALID,19.3923,VALID,41,VALID,0,
2013-06-12, 03:36:04,VALID,914.638,VALID,0,VALID,93.5546,VALID,0,VALID,19.4118,VALID,14,VALID,0,
2013-06-12, 03:37:04,VALID,914.649,VALID,0,VALID,93.5317,VALID,0,VALID,19.3923,VALID,128,VALID,0,
2013-06-12, 03:38:04,VALID,914.665,VALID,0,VALID,93.6003,VALID,0,VALID,19.3923,VALID,327,VALID,0,
2013-06-12, 03:39:04,VALID,914.647,VALID,0,VALID,93.6994,VALID,0,VALID,19.3728,VALID,246,VALID,0,
2013-06-12, 03:40:04,VALID,914.625,VALID,0,VALID,93.7528,VALID,0,VALID,19.3728,VALID,303,VALID,0,
2013-06-12, 03:41:04,VALID,914.615,VALID,0,VALID,93.7604,VALID,0,VALID,19.3728,VALID,259,VALID,0,
2013-06-12, 03:42:04,VALID,914.644,VALID,0,VALID,93.6842,VALID,0,VALID,19.3728,VALID,271,VALID,0,
2013-06-12, 03:43:04,VALID,914.653,VALID,0,VALID,93.7833,VALID,0,VALID,19.3728,VALID,275,VALID,0,
2013-06-12, 03:44:04,VALID,914.674,VALID,0,VALID,93.7451,VALID,0,VALID,19.3923,VALID,162,VALID,0,
2013-06-12, 03:45:04,VALID,914.665,VALID,0,VALID,93.7299,VALID,0,VALID,19.3923,VALID,352,VALID,0,
2013-06-12, 03:46:04,VALID,914.698,VALID,0,VALID,93.768,VALID,0,VALID,19.3923,VALID,339,VALID,0,
2013-06-12, 03:47:04,VALID,914.7,VALID,0,VALID,93.7604,VALID,0,VALID,19.3923,VALID,135,VALID,0,
2013-06-12, 03:48:04,VALID,914.738,VALID,0,VALID,93.8747,VALID,0,VALID,19.3728,VALID,334,VALID,0,
2013-06-12, 03:49:04,VALID,914.718,VALID,0,VALID,93.9967,VALID,0,VALID,19.3533,VALID,16,VALID,0,
2013-06-12, 03:50:04,VALID,914.771,VALID,0,VALID,94.0958,VALID,0,VALID,19.3533,VALID,136,VALID,0,
2013-06-12, 03:51:04,VALID,914.751,VALID,0,VALID,94.1492,VALID,0,VALID,19.3533,VALID,129,VALID,0,
2013-06-12, 03:52:04,VALID,914.717,VALID,0,VALID,94.2102,VALID,0,VALID,19.3338,VALID,39,VALID,0,
2013-06-12, 03:53:04,VALID,914.677,VALID,0,VALID,94.2483,VALID,0,VALID,19.3338,VALID,70,VALID,0,
2013-06-12, 03:54:04,VALID,914.753,VALID,0,VALID,94.2788,VALID,0,VALID,19.3338,VALID,299,VALID,0,
2013-06-12, 03:55:04,VALID,914.762,VALID,0,VALID,94.2864,VALID,0,VALID,19.3533,VALID,88,VALID,0,
2013-06-12, 03:56:04,VALID,914.751,VALID,0.2,VALID,94.3321,VALID,0,VALID,19.3533,VALID,156,VALID,0,
2013-06-12, 03:57:04,VALID,914.761,VALID,0,VALID,94.3398,VALID,0,VALID,19.3533,VALID,215,VALID,0,
2013-06-12, 03:58:04,VALID,914.769,VALID,0,VALID,94.3474,VALID,0,VALID,19.3533,VALID,341,VALID,0,
2013-06-12, 03:59:04,VALID,914.711,VALID,0,VALID,94.477,VALID,0,VALID,19.3323,VALID,57,VALID,0,
2013-06-12, 04:00:04,VALID,914.705,VALID,0,VALID,94.5075,VALID,0,VALID,19.3533,VALID,131,VALID,0,